Location: Cutler
(25.6150°N, 80.3110°W)
Time: 18:42:53
(UTC-05:00)

Hubble Space Telescope - Pass Details

Date: 15 November 2017
Orbit: 537 x 541 km, 28.5° (Epoch: 22 November)

Event Time Altitude Azimuth Distance (km) Brightness Sun altitude
Exits shadow 04:56:21 23° 189° (S) 1,149 2.4 -23.1°
Maximum altitude 04:57:42 29° 156° (SSE) 1,002 2.4 -22.8°
Drops below altitude 10° 05:01:17 10° 95° (E) 1,780 4.6 -22.1°
Sets 05:03:45 0° 84° (E) 2,673 5.6 -21.5°
